Wisconsin Rapids, WI

11:21 AM CDT on May 26, 2018 (GMT -0500)
Alexander Field South Wood County

Weather History for KISW - March, 2014

Change the Weather History Date:

Sunday, March 16, 2014

  Actual Average Record
Temperature  
Mean Temperature 14 °F -  
Max Temperature 21 °F 40 °F 77 °F (2012)
Min Temperature 6 °F 18 °F -11 °F (1956)
Degree Days  
Heating Degree Days 52    
Moisture  
Dew Point 1 °F    
Average Humidity 56    
Maximum Humidity 68    
Minimum Humidity 40    
Precipitation  
Precipitation 0.00 in - - ()
Sea Level Pressure  
Sea Level Pressure 30.43 in    
Wind  
Wind Speed 9 mph (East)    
Max Wind Speed 15 mph    
Max Gust Speed 18 mph    
Visibility 10 miles    
Events      
Averages and records for this station are not official NWS values.
T = Trace of Precipitation, MM = Missing Value Source: NWS Daily Summary

Daily Weather History Graph

Daily Weather History Graph

Search for Another Location

Airport or City:

Astronomy

Mar. 16, 2014 Rise Set
Actual Time 7:09 AM CDT 7:06 PM CDT
Civil Twilight 6:40 AM CDT 7:35 PM CDT
Nautical Twilight 6:07 AM CDT 8:09 PM CDT
Astronomical Twilight 5:32 AM CDT 8:44 PM CDT
Moon 7:26 PM CDT (3/16) 6:52 AM CDT (3/16)
Length of Visible Light 12h 54m
Length of Day
11h 56m
Full, 100% of the Moon is Illuminated
Mar 16
Full
Mar 16
Full
Mar 23
Last Quarter
Mar 30
New
Apr 7
First Quarter

Hourly Weather History & Observations

Time (CDT) Temp. Windchill Dew Point Humidity Pressure Visibility Wind Dir Wind Speed Gust Speed Precip Events Conditions
12:54 AM 19.0 °F 9.0 °F 6.1 °F 57% 30.44 in 10.0 mi ENE 8.1 mph - N/A   Overcast
1:54 AM 16.0 °F 1.7 °F 7.0 °F 68% 30.47 in 10.0 mi East 13.8 mph - N/A   Overcast
2:33 AM 15.1 °F -0.1 °F 6.1 °F 68% 30.43 in 10.0 mi ENE 15.0 mph - N/A   Overcast
2:54 AM 14.0 °F -0.2 °F 3.9 °F 64% 30.49 in 10.0 mi East 12.7 mph - N/A   Overcast
3:16 AM 12.0 °F -2.0 °F 1.9 °F 64% 30.44 in 10.0 mi East 11.5 mph - N/A   Scattered Clouds
3:54 AM 10.9 °F -1.8 °F 1.0 °F 64% 30.50 in 10.0 mi East 9.2 mph - N/A   Clear
4:54 AM 9.0 °F -3.2 °F -2.9 °F 59% 30.51 in 10.0 mi East 8.1 mph - N/A   Clear
5:54 AM 8.1 °F -3.2 °F -2.9 °F 61% 30.52 in 10.0 mi ENE 6.9 mph - N/A   Clear
6:54 AM 7.0 °F -6.6 °F -4.0 °F 61% 30.53 in 10.0 mi East 9.2 mph 18.4 mph N/A   Clear
7:54 AM 6.1 °F -8.7 °F -4.0 °F 63% 30.53 in 10.0 mi ENE 10.4 mph - N/A   Clear
8:54 AM 8.1 °F -7.0 °F -2.9 °F 61% 30.54 in 10.0 mi East 11.5 mph - N/A   Clear
9:54 AM 9.0 °F -4.2 °F -2.0 °F 61% 30.53 in 10.0 mi East 9.2 mph - N/A   Clear
10:54 AM 10.9 °F -2.6 °F -2.9 °F 54% 30.53 in 10.0 mi East 10.4 mph - N/A   Clear
11:54 AM 14.0 °F - -0.9 °F 52% 30.52 in 10.0 mi North - - N/A   Clear
12:54 PM 18.0 °F - -0.0 °F 45% 30.48 in 10.0 mi North - - N/A   Clear
1:54 PM 18.0 °F 7.7 °F -0.9 °F 44% 30.46 in 10.0 mi SE 8.1 mph - 0.00 in   Clear
2:54 PM 19.9 °F 7.9 °F 1.0 °F 44% 30.42 in 10.0 mi East 11.5 mph 16.1 mph N/A   Clear
3:54 PM 21.0 °F 13.4 °F -0.0 °F 40% 30.38 in 10.0 mi East 5.8 mph - N/A   Clear
4:54 PM 21.0 °F 14.6 °F -0.0 °F 40% 30.37 in 10.0 mi East 4.6 mph - N/A   Clear
5:54 PM 21.0 °F 11.4 °F 1.0 °F 42% 30.34 in 10.0 mi ESE 8.1 mph - N/A   Clear
6:54 PM 19.0 °F 12.3 °F 1.0 °F 46% 30.33 in 10.0 mi ESE 4.6 mph - N/A   Clear
7:54 PM 17.1 °F 10.0 °F 1.9 °F 52% 30.30 in 10.0 mi ESE 4.6 mph - N/A   Clear
8:54 PM 16.0 °F 10.4 °F 3.0 °F 57% 30.29 in 10.0 mi ESE 3.5 mph - N/A   Clear
9:54 PM 15.1 °F 6.4 °F 3.0 °F 59% 30.26 in 10.0 mi SE 5.8 mph - N/A   Clear
10:54 PM 15.1 °F 5.2 °F 5.0 °F 64% 30.24 in 10.0 mi SE 6.9 mph - N/A   Clear
11:54 PM 15.1 °F 5.2 °F 6.1 °F 68% 30.20 in 10.0 mi SSE 6.9 mph - N/A   Clear